User: anonymous   Login
Location: Camp at the Woods
(43.2055°N, 93.0905°W)
Time: 05:18:43
(UTC+00:00)
Language:

Helios 1A - Orbit

View from above orbital plane
View from above orbital plane
View from above satellite
View from above satellite

Ground track
Ground track

The orbit data is extracted from the following two-line orbital elements,

1 23605U 95033A   24090.75531278 0.00006600  00000-0  57104-3 0    04
2 23605  98.3048 278.7985 0007398 226.1372 133.8627 14.97209517    01
Epoch (UTC): 30 March 2024 18:07:39
Eccentricity: 0.0007398
inclination: 98.3048°
perigee height: 570 km
apogee height: 580 km
right ascension of ascending node: 278.7985°
argument of perigee: 226.1372°
revolutions per day: 14.97209517
mean anomaly at epoch: 133.8627°
orbit number at epoch: 0

The dashed part of the orbit path shows where the satellite is in the earth's shadow,  

DLR